Location: Bucharest
(44.4268°N, 26.1025°E)
Time: 00:50:30
(UTC+03:00)

O/OREOS (USA 219) - Pass Details

Date: 06 July 2022
Orbit: 621 x 646 km, 72.0° (Epoch: 22 May)

Event Time Altitude Azimuth Distance (km) Brightness Sun altitude
Rises 02:19:06 0° 314° (NW) 2,965 ? -21.5°
Reaches altitude 10° 02:23:09 10° 279° (W) 2,048 ? -21.3°
Enters shadow 02:23:47 11° 271° (W) 1,999 ? -21.3°
